Regional Weather Roundup
Issued by NWS Northern Indiana

Home | Current Version | Previous Version | Graphics & Text | Print | Product List | Glossary On
Versions: 1 2 3 4 5 6 7 8 9 10 11 12 13 14 15 16 17 18 19 20 21 22 23 24 25 26 27 28 29 30 31 32 33 34 35 36 37 38 39 40 41 42 43 44 45 46 47 48 49 50
000
ASUS43 KIWX 101500
RWRIWX

KIWX WEATHER ROUNDUP
NATIONAL WEATHER SERVICE NORTHERN INDIANA
1000 AM EST SUN DEC 10 2017

NOTE: "FAIR" INDICATES FEW OR NO CLOUDS BELOW 12,000 FEET WITH NO
SIGNIFICANT WEATHER AND/OR OBSTRUCTIONS TO VISIBILITY.

* THESE STATIONS ARE NOT UNDER NWS QUALITY CONTROL. THEY ALSO MAY NOT
  REPORT WEATHER SUCH AS PRECIPITATION OR FOG.

INZ001>027-101600-
NORTHERN INDIANA

CITY           SKY/WX    TMP DP  RH WIND       PRES   REMARKS
GARY*          PTSUNNY   27  18  69 S12       29.95F WCI  16
SOUTH BEND     CLOUDY    21  17  84 S12       29.95F WCI   9
GOSHEN         CLOUDY    22  15  75 SW15      29.97F WCI   9
MONTICELLO*    CLOUDY    25  16  68 SW14      30.00F WCI  13
FORT WAYNE     CLOUDY    23  17  78 SW14      30.01F WCI  11
PERU/GRISSOM   CLOUDY    24  17  74 S14       30.00F WCI  12

$$
INZ028>050-101600-
CENTRAL INDIANA

CITY           SKY/WX    TMP DP  RH WIND       PRES   REMARKS
LAFAYETTE      CLOUDY    25  18  74 SW14G22   30.02F WCI  13
KOKOMO*        CLOUDY    25  18  74 SW15      30.03S WCI  13
MUNCIE*        CLOUDY    25  16  68 SW10      30.04F WCI  15
INDIANAPOLIS   CLOUDY    26  16  65 SW14      30.07F WCI  14

$$
MIZ043>046-050>051-056>058-064>065-071>073-077>080-101600-
SOUTHWEST LOWER MICHIGAN

CITY           SKY/WX    TMP DP  RH WIND       PRES   REMARKS
BATTLE CREEK   CLOUDY    22  15  75 SW14      29.92S WCI   9
BENTON HARBOR  CLOUDY    23  14  68 S13       29.93S WCI  11
COLDWATER*     CLOUDY    22  15  74 SW13      29.94S WCI  10
HILLSDALE*     CLOUDY    21  14  73 SW9       29.92S WCI  11
HOLLAND        CLOUDY    27  20  75 SW9G23    29.89F WCI  18
GRAND RAPIDS   CLOUDY    25  22  88 S12       29.88F WCI  14
KALAMAZOO      CLOUDY    23  14  68 SW17      29.92F WCI   9
STURGIS*       CLOUDY    21  15  77 SW14      29.94F WCI   8
THREE RIVERS*  CLOUDY    23  15  74 SW10G16   29.94F WCI  12

$$
OHZ001>008-015>018-024>025-101600-
NORTHWEST OHIO

CITY           SKY/WX    TMP DP  RH WIND       PRES   REMARKS
DEFIANCE       CLOUDY    22  14  71 SW13G18   30.01S WCI  10
FINDLAY        CLOUDY    24  14  65 SW15      30.02S WCI  11
TOLEDO EXPRESS CLOUDY    22  16  78 SW16      29.99S WCI   8
TOLEDO METCALF CLOUDY    23  16  74 SW15      30.01R WCI  10
LIMA           CLOUDY    22  16  78 SW15      30.03S WCI   9

$$
AND FOR LAKE MICHIGAN COASTAL AND OPEN LAKE BUOY OBSERVATIONS

STATION/POSITION TEMP    WIND        PRES    VSBY  WAVE
                 AIR SEA DIR/SP/G                  HT/PER
                 (F)     (DEG/KT/KT) (MB)    (MI)  (FT/S)
CALUMET HARBOR    26     200/ 11/ 18 1012.8F
MICHIGAN CITY     23     180/ 10/ 12   N/A
BURNS HARBOR      26     200/ 12/ 16 1014.6F
SAINT JOSEPH      27     210/ 21/ 27 1014.6

$$
&&




USA.gov is the U.S. government's official web portal to all federal, state and local government web resources and services.